Weather Roundup
Issued by NWS

Home | Current Version | Previous Version | Graphics & Text | Print | Product List | Glossary Off
Versions: 1 2 3 4 5 6 7 8 9 10 11 12 13 14 15 16 17 18 19 20 21 22 23 24 25 26 27 28 29 30 31 32 33 34 35 36 37 38 39 40 41 42 43 44 45 46 47 48 49 50

093
NZUS93 KARX 241010
HRRWXR

CURRENT HOURLY OBSERVATIONS ACROSS
MUCH OF THE UPPER MISSISSIPPI VALLEY
NATIONAL WEATHER SERVICE LA CROSSE WI
500 AM CDT TUE OCT 24 2017


...SOUTHEAST MINNESOTA...


CITY           SKY/WX    TMP DP  RH WIND       PRES   REMARKS
ROCHESTER      CLOUDY    40  32  73 NW23G35   29.75R WCI  30
ROCHESTER/MAYO CLOUDY    41  31  68 NW22G33   29.75S
WINONA         CLOUDY    46  34  61 NW17G25   29.72R
AUSTIN         CLOUDY    39  30  70 NW20G29   29.78S WCI  30
ALBERT LEA     NOT AVBL
DODGE CENTER   CLOUDY    39  30  70 NW20G25   29.77S WCI  30
PRESTON        CLOUDY    39  31  70 NW18G28   29.73S WCI  30
OWATONNA       CLOUDY    41  32  70 NW20G25   29.81F
FARIBAULT      CLOUDY    41  32  70 NW18G24   29.82S
$$

...ELSEWHERE IN MINNESOTA...


CITY           SKY/WX    TMP DP  RH WIND       PRES   REMARKS
MINNEAPOLIS    CLOUDY    43  33  68 NW20G29   29.81F
INTNL FALLS    CLOUDY    37  27  67 N13       29.95S WCI  29
DULUTH         CLOUDY    37  33  85 N22G33    29.74F WCI  26
RED WING       CLOUDY    45  30  57 N15G25    29.75S
REDWOOD FALLS  CLEAR     36  27  69 NW20G33   29.98R WCI  25
MANKATO        NOT AVBL
WORTHINGTON    MOCLDY    33  28  81 NW23G32   30.00S WCI  21
FAIRMONT       MOCLDY    36  29  75 NW25G35   29.92R WCI  24
$$

...SOUTHWEST WISCONSIN...


CITY           SKY/WX    TMP DP  RH WIND       PRES   REMARKS
LA CROSSE      CLOUDY    47  36  65 NW23G31   29.66S
PRAIRIE DU CHI CLOUDY    46  33  59 NW17G28   29.65S
BOSCOBEL       LGT RAIN  47  38  71 NW12G20   29.64R
LONE ROCK      LGT RAIN  44  41  89 NW14      29.61R
PLATTEVILLE    CLOUDY    44  42  94 NW12      29.62S
FORT MC COY    CLOUDY    44  37  78 NW12G20   29.65S
CAMP DOUGLAS   CLOUDY    43  39  87 NW15G21   29.60S
MAUSTON-NEW LI LGT RAIN  43  40  90 NW14G24   29.59S
VIROQUA        CLOUDY    43  37  80 NW20G26   29.63S
WIS DELLS      LGT RAIN  42  40  93 NW13G21   29.57R
$$

...ELSEWHERE IN WISCONSIN...


CITY           SKY/WX    TMP DP  RH WIND       PRES   REMARKS
MILWAUKEE      LGT RAIN  50  49  96 NW6       29.47R
MADISON        RAIN      45  42  89 NW12G22   29.54R
GREEN BAY      LGT RAIN  49  48  97 W10       29.45F
EAU CLAIRE     CLOUDY    43  34  70 NW16G24   29.69S
BLACK RVR FLS  CLOUDY    45  35  68 NW10G17   29.64S
MEDFORD        DRIZZLE   40  37  90 NW18G28   29.59S WCI  30
WAUSAU         LGT RAIN  42  40  92 NW15G21   29.54S
WIS RAPIDS     RAIN      43  40  89 N17G24    29.58R
MARSHFIELD     LGT RAIN  42  37  82 NW17G28   29.58S
RICE LAKE      CLOUDY    41  35  78 NW13G24   29.73F
$$

...NORTHEAST IOWA...


CITY           SKY/WX    TMP DP  RH WIND       PRES   REMARKS
WATERLOO       CLOUDY    41  30  65 NW23G30   29.75S
DUBUQUE        CLOUDY    44  36  73 NW17G26   29.64S
DECORAH        CLOUDY    43  32  65 NW15G24   29.69R
MASON CITY     CLOUDY    38  29  70 NW23G37   29.83F WCI  27
CHARLES CITY   CLOUDY    41  30  65 NW15G28   29.77S
OELWEIN        CLOUDY    41  32  70 NW29G36   29.72S
$$

...ELSEWHERE IN IOWA...


CITY           SKY/WX    TMP DP  RH WIND       PRES   REMARKS
DES MOINES     PTCLDY    42  30  62 NW26G35   29.87R
IOWA CITY      CLOUDY    47  30  51 NW21G31   29.74R
FORT DODGE     MOCLDY    39  28  64 NW10G22   29.92R WCI  32
MARSHALLTOWN   LGT RAIN  40  31  70 NW25G32   29.81S WCI  29
CEDAR RAPIDS   CLOUDY    44  30  57 NW22G29   29.72R
$$

...NORTHERN ILLINOIS...


CITY           SKY/WX    TMP DP  RH WIND       PRES   REMARKS
CHICAGO-OHARE  LGT RAIN  48  45  89 W12G20    29.51F
CHICAGO-MIDWAY LGT RAIN  48  46  93 W12       29.52F FOG
MOLINE         CLOUDY    49  33  54 NW21G29   29.66S
ROCKFORD       RAIN      45  43  93 W16G22    29.57F
PEORIA         CLOUDY    48  36  63 W12       29.67R
$$

NOTE: "FAIR" INDICATES FEW OR NO CLOUDS BELOW 12,000 FEET WITH NO
SIGNIFICANT WEATHER AND/OR OBSTRUCTIONS TO VISIBILITY. WIND
SPEEDS ARE IN MILES-PER-HOUR.




USA.gov is the U.S. government's official web portal to all federal, state and local government web resources and services.